Bellingham, Washington, United States (98225)
Lat: 48.76N, Lon: 122.49W
Wx Zone: WAZ503
Local Info
Past Weather Observations for Saturday, August 16, 2014

NOTE: This archive is for the closest National Weather Service station to Bellingham. Information may differ from the station used for current weather conditions.

Click here for Long-term Archive

Time Weather Temperature Dewpoint Humidity Pressure Winds Precip Visibility
23:53
Clear
61°F / 16°C 57°F / 14°C 88% 30.09 in
(1019 mb)
S 4.6 mph
(S 7 kph)
- 10SM
22:53
Clear
63°F / 17°C 59°F / 15°C 88% 30.09 in
(1019 mb)
S 3.5 mph
(S 6 kph)
- 10SM
21:53
Clear
61°F / 16°C 59°F / 15°C 94% 30.09 in
(1019 mb)
Calm - 10SM
20:53
Clear
63°F / 17°C 59°F / 15°C 88% 30.09 in
(1019 mb)
Calm - 10SM
19:53
Clear
64°F / 18°C 59°F / 15°C 83% 30.09 in
(1019 mb)
Calm - 10SM
18:53
Clear
66°F / 19°C 59°F / 15°C 78% 30.09 in
(1019 mb)
SSW 4.6 mph
(SSW 7 kph)
- 10SM
17:53
Clear
72°F / 22°C 61°F / 16°C 69% 30.09 in
(1019 mb)
SSW 3.5 mph
(SSW 6 kph)
- 10SM
16:53
Clear
72°F / 22°C 63°F / 17°C 73% 30.09 in
(1019 mb)
SSE 4.6 mph
(SSE 7 kph)
- 10SM
15:53
Partly Cloudy
72°F / 22°C 63°F / 17°C 73% 30.09 in
(1019 mb)
SW 4.6 mph
(SW 7 kph)
- 10SM
14:53
Mostly Cloudy
72°F / 22°C 63°F / 17°C 73% 30.12 in
(1020 mb)
Calm - 10SM
14:00
Overcast
70°F / 21°C 63°F / 17°C 78% 30.12 in
(1020 mb)
Calm - 10SM
13:53
Overcast
70°F / 21°C 63°F / 17°C 78% 30.12 in
(1020 mb)
Calm - 10SM
12:53
Overcast
66°F / 19°C 61°F / 16°C 83% 30.12 in
(1020 mb)
NW 4.6 mph
(NW 7 kph)
0.00 in
(0.00 mm)
10SM
12:00
Overcast
Light Rain
64°F / 18°C 61°F / 16°C 88% 30.12 in
(1020 mb)
Calm 0.00 in
(0.00 mm)
5SM
11:53
Overcast
Light Rain
64°F / 18°C 61°F / 16°C 88% 30.12 in
(1020 mb)
Calm 0.00 in
(0.00 mm)
6SM
11:31
Overcast
Fog And Mist
63°F / 17°C 61°F / 16°C 94% 30.12 in
(1020 mb)
Calm - 6SM
10:53
Overcast
Fog And Mist
63°F / 17°C 59°F / 15°C 88% 30.12 in
(1020 mb)
SSE 4.6 mph
(SSE 7 kph)
- 2SM
10:05
Overcast
Fog And Mist
63°F / 17°C 57°F / 14°C 83% 30.12 in
(1020 mb)
S 4.6 mph
(S 7 kph)
- 2SM
09:53
Overcast
63°F / 17°C 57°F / 14°C 83% 30.12 in
(1020 mb)
SSE 4.6 mph
(SSE 7 kph)
- 7SM
09:33
Overcast
63°F / 17°C 57°F / 14°C 83% 30.12 in
(1020 mb)
S 4.6 mph
(S 7 kph)
- 10SM
09:21
Overcast
63°F / 17°C 57°F / 14°C 83% 30.12 in
(1020 mb)
S 3.5 mph
(S 6 kph)
- 10SM
08:53
Overcast
63°F / 17°C 57°F / 14°C 83% 30.12 in
(1020 mb)
S 4.6 mph
(S 7 kph)
- 10SM
07:53
Overcast
63°F / 17°C 57°F / 14°C 83% 30.12 in
(1020 mb)
S 5.8 mph
(S 9 kph)
- 10SM
07:30
Overcast
63°F / 17°C 57°F / 14°C 83% 30.12 in
(1020 mb)
S 3.5 mph
(S 6 kph)
- 10SM
07:18
Overcast
63°F / 17°C 57°F / 14°C 83% 30.09 in
(1019 mb)
SSE 8.1 mph
(SSE 13 kph)
- 10SM
06:53
Overcast
63°F / 17°C 57°F / 14°C 83% 30.09 in
(1019 mb)
S 4.6 mph
(S 7 kph)
- 10SM
06:45
Overcast
63°F / 17°C 57°F / 14°C 83% 30.09 in
(1019 mb)
S 4.6 mph
(S 7 kph)
- 10SM
05:53
Overcast
61°F / 16°C 57°F / 14°C 88% 30.09 in
(1019 mb)
SSE 4.6 mph
(SSE 7 kph)
- 10SM
04:53
Overcast
61°F / 16°C 57°F / 14°C 88% 30.09 in
(1019 mb)
S 5.8 mph
(S 9 kph)
- 10SM
03:53
Overcast
61°F / 16°C 57°F / 14°C 88% 30.09 in
(1019 mb)
S 4.6 mph
(S 7 kph)
- 10SM
02:53
Overcast
61°F / 16°C 57°F / 14°C 88% 30.06 in
(1018 mb)
S 4.6 mph
(S 7 kph)
- 10SM
01:53
Overcast
61°F / 16°C 57°F / 14°C 88% 30.06 in
(1018 mb)
Variable 3.5 mph
(Variable 6 kph)
- 10SM
00:53
Overcast
63°F / 17°C 57°F / 14°C 83% 30.06 in
(1018 mb)
S 5.8 mph
(S 9 kph)
0.01 in
(0.25 mm)
10SM
Time Weather Temperature Dewpoint Humidity Pressure Winds Precip Visibility


Weather for websites

WeatherForYou.com, LLC is not responsible for any damages or problems caused by this service. Current weather conditions are obtained from the closest station including government and personal stations which may have varying degrees of accuracy. Weather forecasts are derived from the NOAA NDFD. Like all things, this site belongs to Jesus Christ... He just trusts me to maintain it. If you have any questions or comments email webmaster@weatherforyou.com

Copyright © 2014, WeatherForYou.com LLC. All rights reserved.